| time (UTC) | temp F | wind direction | speed knots | gust knots | rain 1hr in | rain 24hr in | rain mn in | humidity % | barometer mb |
| 20260506182004 | 60 | 0 | 0.0 | 0.0 | 0.02 | 0.15 | 0.15 | 1 | 1007.5 |
| 20260506180005 | 60 | 125 | 0.0 | 0.9 | 0.01 | 0.14 | 0.14 | 1 | 1007.6 |
| 20260506174004 | 60 | 0 | 0.0 | 0.0 | 0.02 | 0.14 | 0.14 | 1 | 1007.6 |
| 20260506172004 | 60 | 122 | 0.0 | 1.7 | 0.02 | 0.13 | 0.13 | 1 | 1007.7 |
| 20260506171004 | 60 | 302 | 0.0 | 1.7 | 0.03 | 0.13 | 0.13 | 1 | 1007.8 |
| 20260506170004 | 60 | 0 | 0.0 | 0.0 | 0.03 | 0.13 | 0.13 | 1 | 1007.9 |
| 20260506165004 | 60 | 70 | 0.0 | 0.9 | 0.05 | 0.13 | 0.13 | 1 | 1007.8 |
| 20260506164004 | 60 | 113 | 0.0 | 1.7 | 0.04 | 0.12 | 0.12 | 1 | 1007.9 |
| 20260506163004 | 60 | 198 | 0.0 | 3.5 | 0.05 | 0.12 | 0.12 | 1 | 1007.5 |
| 20260506162004 | 60 | 143 | 0.0 | 1.7 | 0.06 | 0.11 | 0.11 | 1 | 1007.5 |
| 20260506161004 | 61 | 156 | 0.0 | 1.7 | 0.06 | 0.10 | 0.10 | 1 | 1008.0 |
| 20260506154004 | 61 | 0 | 0.0 | 0.0 | 0.07 | 0.08 | 0.08 | 1 | 1008.8 |
| 20260506152004 | 62 | 0 | 0.0 | 0.0 | 0.05 | 0.05 | 0.05 | 1 | 1009.2 |
| 20260506151004 | 62 | 0 | 0.0 | 0.0 | 0.04 | 0.04 | 0.04 | 1 | 1008.8 |
| 20260506150004 | 63 | 114 | 0.0 | 0.9 | 0.04 | 0.04 | 0.04 | 1 | 1008.8 |
| 20260506145004 | 63 | 0 | 0.0 | 0.0 | 0.02 | 0.02 | 0.02 | 1 | 1008.8 |
| 20260506144004 | 63 | 0 | 0.0 | 0.0 | 0.01 | 0.01 | 0.01 | 1 | 1008.9 |
| 20260506143004 | 64 | 287 | 0.0 | 0.9 | 0.00 | 0.00 | 0.00 | 1 | 1009.1 |
| 20260506141004 | 64 | 0 | 0.0 | 0.0 | 0.00 | 0.00 | 0.00 | 1 | 1008.9 |
| 20260506140004 | 64 | 188 | 0.0 | 0.9 | 0.00 | 0.00 | 0.00 | 1 | 1008.5 |
| 20260506133004 | 64 | 0 | 0.0 | 0.0 | 0.00 | 0.00 | 0.00 | 1 | 1008.9 |
| 20260506132004 | 64 | 168 | 0.0 | 2.6 | 0.00 | 0.00 | 0.00 | 1 | 1009.0 |
| 20260506131004 | 64 | 0 | 0.0 | 0.0 | 0.00 | 0.00 | 0.00 | 1 | 1009.0 |
| 20260506130005 | 64 | 0 | 0.0 | 0.0 | 0.00 | 0.00 | 0.00 | 1 | 1009.1 |
| 20260506125004 | 64 | 0 | 0.0 | 0.0 | 0.00 | 0.00 | 0.00 | 1 | 1009.1 |
| 20260506124004 | 64 | 127 | 0.0 | 0.9 | 0.00 | 0.00 | 0.00 | 1 | 1008.9 |
| 20260506122004 | 63 | 0 | 0.0 | 0.0 | 0.00 | 0.00 | 0.00 | 1 | 1008.8 |
| 20260506121004 | 63 | 0 | 0.0 | 0.0 | 0.00 | 0.00 | 0.00 | 1 | 1008.8 |
| 20260506115004 | 63 | 159 | 0.0 | 0.9 | 0.00 | 0.00 | 0.00 | 1 | 1008.9 |
| 20260506114005 | 63 | 161 | 0.0 | 0.9 | 0.00 | 0.00 | 0.00 | 1 | 1008.7 |
| 20260506113003 | 63 | 0 | 0.0 | 0.0 | 0.00 | 0.00 | 0.00 | 1 | 1008.7 |
| 20260506112003 | 63 | 0 | 0.0 | 0.0 | 0.00 | 0.00 | 0.00 | 1 | 1008.7 |
| 20260506111004 | 63 | 166 | 0.0 | 0.9 | 0.00 | 0.00 | 0.00 | 1 | 1008.6 |
| 20260506110004 | 63 | 168 | 0.0 | 0.9 | 0.00 | 0.00 | 0.00 | 1 | 1008.5 |
| 20260506105005 | 63 | 176 | 0.0 | 3.5 | 0.00 | 0.00 | 0.00 | 1 | 1008.4 |
| 20260506104004 | 63 | 168 | 0.0 | 1.7 | 0.00 | 0.00 | 0.00 | 1 | 1008.2 |
| 20260506103004 | 63 | 0 | 0.0 | 0.0 | 0.00 | 0.00 | 0.00 | 1 | 1008.2 |
| 20260506102004 | 63 | 0 | 0.0 | 0.0 | 0.00 | 0.00 | 0.00 | 1 | 1008.3 |
| 20260506101004 | 63 | 0 | 0.0 | 0.0 | 0.00 | 0.00 | 0.00 | 1 | 1008.3 |
| 20260506100004 | 63 | 332 | 0.0 | 0.9 | 0.00 | 0.00 | 0.00 | 1 | 1008.4 |
| 20260506095004 | 63 | 0 | 0.0 | 0.0 | 0.00 | 0.00 | 0.00 | 1 | 1008.5 |
| 20260506093004 | 64 | 177 | 0.0 | 1.7 | 0.00 | 0.00 | 0.00 | 1 | 1008.4 |
| 20260506092004 | 64 | 157 | 0.0 | 1.7 | 0.00 | 0.01 | 0.00 | 1 | 1008.3 |
| 20260506091003 | 64 | 152 | 0.0 | 0.9 | 0.00 | 0.01 | 0.00 | 1 | 1008.3 |
| 20260506085003 | 64 | 0 | 0.0 | 0.0 | 0.00 | 0.01 | 0.00 | 3 | 1008.5 |
| 20260506084003 | 64 | 144 | 0.0 | 1.7 | 0.00 | 0.01 | 0.00 | 3 | 1008.5 |
| 20260506083004 | 64 | 0 | 0.0 | 0.0 | 0.00 | 0.01 | 0.00 | 3 | 1008.5 |
| 20260506081004 | 64 | 149 | 0.0 | 0.9 | 0.00 | 0.01 | 0.00 | 9 | 1008.5 |
| 20260506073003 | 64 | 0 | 0.0 | 0.0 | 0.00 | 0.01 | 0.00 | 25 | 1008.7 |
| 20260506072004 | 64 | 168 | 0.0 | 2.6 | 0.00 | 0.01 | 0.00 | 28 | 1008.8 |
| 20260506071003 | 64 | 0 | 0.0 | 0.0 | 0.00 | 0.01 | 0.00 | 31 | 1008.8 |
| 20260506062004 | 65 | 0 | 0.0 | 0.0 | 0.00 | 0.01 | 0.00 | 40 | 1009.1 |
| 20260506051004 | 66 | 0 | 0.0 | 0.0 | 0.00 | 0.01 | 0.00 | 45 | 1009.7 |
| 20260506045004 | 66 | 154 | 0.0 | 1.7 | 0.00 | 0.01 | 0.00 | 46 | 1009.8 |
| 20260506044004 | 66 | 147 | 0.0 | 3.5 | 0.00 | 0.01 | 0.00 | 46 | 1009.9 |
| 20260506043003 | 66 | 131 | 0.0 | 1.7 | 0.00 | 0.01 | 0.00 | 48 | 1009.9 |
| 20260506042004 | 66 | 133 | 0.0 | 0.9 | 0.00 | 0.01 | 0.00 | 49 | 1009.8 |
| 20260506041005 | 66 | 0 | 0.0 | 0.0 | 0.00 | 0.01 | 0.00 | 51 | 1009.7 |
| 20260506040005 | 66 | 126 | 0.0 | 0.9 | 0.00 | 0.01 | 0.00 | 53 | 1009.7 |
| 20260506035004 | 67 | 124 | 0.0 | 1.7 | 0.00 | 0.01 | 0.01 | 54 | 1009.7 |
| 20260506034004 | 67 | 123 | 0.0 | 0.9 | 0.00 | 0.01 | 0.01 | 55 | 1009.7 |
| 20260506033004 | 67 | 148 | 0.0 | 1.7 | 0.00 | 0.01 | 0.01 | 55 | 1009.6 |
| 20260506032004 | 68 | 140 | 0.0 | 1.7 | 0.00 | 0.01 | 0.01 | 55 | 1009.6 |
| 20260506031004 | 68 | 13 | 0.0 | 0.9 | 0.00 | 0.01 | 0.01 | 55 | 1009.6 |
| 20260506030004 | 68 | 126 | 0.0 | 1.7 | 0.00 | 0.01 | 0.01 | 55 | 1009.6 |
| 20260506025004 | 69 | 134 | 0.0 | 0.9 | 0.00 | 0.01 | 0.01 | 55 | 1009.6 |
| 20260506024004 | 69 | 167 | 0.0 | 1.7 | 0.00 | 0.01 | 0.01 | 54 | 1009.7 |
| 20260506023004 | 69 | 123 | 0.0 | 0.9 | 0.00 | 0.01 | 0.01 | 54 | 1009.8 |
| 20260506022004 | 70 | 0 | 0.0 | 0.0 | 0.00 | 0.01 | 0.01 | 53 | 1009.6 |
| 20260506020004 | 70 | 170 | 0.0 | 0.9 | 0.00 | 0.01 | 0.01 | 51 | 1009.6 |
| 20260506015003 | 70 | 160 | 0.0 | 0.9 | 0.00 | 0.01 | 0.01 | 51 | 1009.6 |
| 20260506014005 | 70 | 0 | 0.0 | 0.0 | 0.00 | 0.01 | 0.01 | 52 | 1009.6 |
| 20260506013004 | 70 | 86 | 0.0 | 0.9 | 0.00 | 0.01 | 0.01 | 52 | 1009.4 |
| 20260506011003 | 71 | 221 | 0.0 | 2.6 | 0.00 | 0.01 | 0.01 | 51 | 1009.2 |
| 20260506010004 | 71 | 62 | 0.0 | 0.9 | 0.00 | 0.01 | 0.01 | 49 | 1009.0 |
| 20260506004004 | 72 | 48 | 0.0 | 0.9 | 0.00 | 0.01 | 0.01 | 47 | 1008.9 |
| 20260506003004 | 72 | 138 | 0.0 | 0.9 | 0.00 | 0.01 | 0.01 | 46 | 1008.7 |
| 20260506002003 | 72 | 138 | 0.0 | 2.6 | 0.00 | 0.01 | 0.01 | 46 | 1008.6 |
| 20260506001003 | 73 | 243 | 0.0 | 0.9 | 0.00 | 0.01 | 0.01 | 46 | 1008.5 |
| 20260506000004 | 73 | 119 | 0.0 | 1.7 | 0.00 | 0.01 | 0.01 | 46 | 1008.5 |
| 20260505235003 | 74 | 146 | 0.0 | 0.9 | 0.00 | 0.01 | 0.01 | 45 | 1008.4 |
| 20260505234003 | 74 | 145 | 0.0 | 0.9 | 0.00 | 0.01 | 0.01 | 44 | 1008.2 |
| 20260505233004 | 75 | 159 | 0.0 | 0.9 | 0.00 | 0.01 | 0.01 | 42 | 1008.3 |
| 20260505230004 | 76 | 184 | 0.0 | 1.7 | 0.00 | 0.01 | 0.01 | 40 | 1008.3 |
| 20260505225003 | 77 | 49 | 0.0 | 2.6 | 0.00 | 0.01 | 0.01 | 39 | 1008.1 |
| 20260505224004 | 77 | 0 | 0.0 | 0.0 | 0.00 | 0.01 | 0.01 | 40 | 1008.0 |
| 20260505223004 | 78 | 149 | 0.0 | 0.9 | 0.00 | 0.01 | 0.01 | 41 | 1007.9 |
| 20260505222003 | 78 | 183 | 0.0 | 1.7 | 0.00 | 0.01 | 0.01 | 39 | 1007.9 |
| 20260505221004 | 78 | 105 | 0.0 | 4.3 | 0.00 | 0.01 | 0.01 | 39 | 1007.9 |
| 20260505220004 | 78 | 138 | 0.0 | 0.9 | 0.00 | 0.01 | 0.01 | 41 | 1008.1 |
| 20260505215004 | 79 | 0 | 0.0 | 0.0 | 0.00 | 0.01 | 0.01 | 39 | 1008.2 |
| 20260505214004 | 79 | 120 | 0.0 | 0.9 | 0.00 | 0.01 | 0.01 | 39 | 1008.1 |
| 20260505213004 | 79 | 0 | 0.0 | 0.0 | 0.00 | 0.01 | 0.01 | 39 | 1008.1 |
| 20260505212004 | 79 | 16 | 0.0 | 6.1 | 0.00 | 0.01 | 0.01 | 38 | 1007.9 |
| 20260505210003 | 80 | 0 | 0.0 | 0.0 | 0.00 | 0.01 | 0.01 | 39 | 1007.8 |
| 20260505205003 | 80 | 322 | 0.0 | 3.5 | 0.00 | 0.01 | 0.01 | 38 | 1007.8 |
| 20260505204003 | 82 | 137 | 0.0 | 1.7 | 0.00 | 0.01 | 0.01 | 36 | 1007.8 |
| 20260505203004 | 83 | 98 | 0.0 | 0.9 | 0.00 | 0.01 | 0.01 | 36 | 1007.8 |
| 20260505201004 | 82 | 207 | 0.0 | 1.7 | 0.00 | 0.01 | 0.01 | 36 | 1007.9 |
| 20260505200004 | 81 | 171 | 0.0 | 6.1 | 0.00 | 0.01 | 0.01 | 36 | 1008.1 |
| 20260505195004 | 82 | 191 | 0.0 | 3.5 | 0.00 | 0.01 | 0.01 | 34 | 1007.9 |
| 20260505194004 | 82 | 0 | 0.0 | 0.0 | 0.00 | 0.01 | 0.01 | 33 | 1008.1 |
| 20260505193004 | 82 | 106 | 0.0 | 2.6 | 0.00 | 0.01 | 0.01 | 34 | 1007.9 |
| 20260505192004 | 81 | 72 | 0.0 | 3.5 | 0.00 | 0.01 | 0.01 | 35 | 1008.1 |
| 20260505191004 | 82 | 226 | 0.0 | 2.6 | 0.00 | 0.01 | 0.01 | 34 | 1008.2 |
| 20260505190004 | 81 | 185 | 0.0 | 8.7 | 0.00 | 0.01 | 0.01 | 35 | 1008.2 |
| 20260505185005 | 82 | 178 | 0.0 | 7.8 | 0.00 | 0.01 | 0.01 | 37 | 1008.3 |
| 20260505184004 | 82 | 344 | 0.0 | 3.5 | 0.00 | 0.01 | 0.01 | 33 | 1008.3 |